Skip Page Navigation
NASA JPL Caltech
NASA Logo - Jet Propulsion Laboratory + View the NASA Portal
+ Near-Earth Object (NEO) Program
Search JPL
JPL Home Earth Solar System Stars & Galaxies Technology
JPL Solar System Dynamics
BODIES ORBITS EPHEMERIDES TOOLS PHYSICAL DATA DISCOVERY FAQ SITE MAP
JPL Small-Body Database Browser
Search: [ help ]  
79271 Bellagio (1995 SJ5)
Classification: Main-belt Asteroid          SPK-ID: 2079271
Ephemeris | Orbit Diagram | Orbital Elements | Physical Parameters | Discovery Circumstances | Close-Approach Data ]

[ show orbit diagram ]
Orbital Elements at Epoch 2456800.5 (2014-May-23.0) TDB
Reference: JPL 7 (heliocentric ecliptic J2000)
 Element Value Uncertainty (1-sigma)   Units 
e .1946164012735134 9.5385e-08  
a 2.230686025697449 2.3078e-08 AU
q 1.796557939005095 2.1724e-07 AU
i 5.070685882009813 1.1305e-05 deg
node 335.478945368886 9.1436e-05 deg
peri 332.503795674762 9.9432e-05 deg
M 257.8474227324779 4.988e-05 deg
tp 2457145.805045516026
(2015-May-03.30504552)
0.00017184 JED
period 1216.90337836725
3.33
1.8885e-05
5.17e-08
d
yr
n .2958328544399482 4.5909e-09 deg/d
Q 2.664814112389803 2.7569e-08 AU
  Orbit Determination Parameters
   # obs. used (total)      310  
   data-arc span      7333 days (20.08 yr)  
   first obs. used      1994-03-07  
   last obs. used      2014-04-04  
   planetary ephem.      DE431  
   SB-pert. ephem.      SB431-BIG16  
   condition code      0  
   fit RMS      .55125  
   data source      ORB  
   producer      Otto Matic  
   solution date      2014-Apr-17 15:25:23  

Additional Information
 Earth MOID = .782912 AU 
 T_jup = 3.612 
[ show covariance matrix ]

Ephemeris | Orbit Diagram | Orbital Elements | Physical Parameters | Discovery Circumstances | Close-Approach Data ]

Physical Parameter Table
Parameter Symbol Value Units Sigma Reference Notes
absolute magnitude H 15.9 mag n/a MPO259818  

79271 Bellagio           Discovered 1995 Sept. 28 by V. Giuliani and G. Ventre at Sormano.
Bellagio is a world-famous tourist destination situated on the Lake Como a few kilometers north of the Sormano Astronomical Observatory.
NOTE: some special characters may not display properly (any characters within {} are an attempt to place the proper accent above a character)
Reference: 20050523/MPCPages.arcLast Updated: 2005-07-21

[ show close-approach data ]
Alternate Designations
 1995 SJ5 = 2001 KX52 
Ephemeris | Orbit Diagram | Orbital Elements | Physical Parameters | Discovery Circumstances | Close-Approach Data ]
ABOUT SSD CREDITS/AWARDS PRIVACY/COPYRIGHT GLOSSARY LINKS
FirstGov 2014-Apr-21 04:33 UT
(server date/time)  
NASA Home Page
Site Manager:   Donald K. Yeomans
Webmaster  Alan B. Chamberlin